QTR265 VEGT-VQPR

Flight info

Callsign QTR265
Flight time N/A
Altitude 28000
Route GGT W137 DUKUM DCT BOGOP BOGOP1B
Aircraft B77W/H-SDE1E2E3FGHIJ2J3J4J5M1RWXY/LB1D1

Departure

Time 2026-05-07 09:19
Airport Lokpriya Gopinath Bordoloi International Airport (VEGT)

Arrival

Time N/A
Airport Paro International Airport (VQPR)
Time Latitude Longitude Altitude Speed Heading
2026-05-07 09:03 26.12165 91.59569 176 ft 0 kts 107°
2026-05-07 09:17 26.12129 91.59606 176 ft 14 kts 165°
2026-05-07 09:17 26.12036 91.59575 176 ft 14 kts 208°
2026-05-07 09:17 26.11946 91.59527 176 ft 14 kts 213°
2026-05-07 09:17 26.11939 91.59424 176 ft 15 kts 291°
2026-05-07 09:18 26.11993 91.59277 176 ft 17 kts 292°
2026-05-07 09:18 26.12006 91.59242 176 ft 1 kts 292°
2026-05-07 09:18 26.12020 91.59199 176 ft 9 kts 280°
2026-05-07 09:18 26.11992 91.59142 176 ft 8 kts 218°
2026-05-07 09:19 26.11856 91.59073 176 ft 62 kts 203°
2026-05-07 09:19 26.11035 91.58695 179 ft 190 kts 202°
2026-05-07 09:19 26.09645 91.58059 1183 ft 223 kts 203°
2026-05-07 09:19 26.08304 91.57191 2923 ft 234 kts 220°
2026-05-07 09:20 26.07456 91.55647 3917 ft 240 kts 260°
2026-05-07 09:20 26.07583 91.53775 4872 ft 253 kts 283°
2026-05-07 09:20 26.08087 91.51846 5829 ft 264 kts 285°
2026-05-07 09:20 26.08629 91.49869 6960 ft 270 kts 285°
2026-05-07 09:21 26.09170 91.47852 8106 ft 274 kts 284°
2026-05-07 09:21 26.09699 91.45803 9290 ft 277 kts 284°
2026-05-07 09:21 26.10221 91.43721 10373 ft 284 kts 283°
2026-05-07 09:21 26.10755 91.41516 10958 ft 310 kts 283°
2026-05-07 09:22 26.11331 91.39071 11234 ft 344 kts 283°
2026-05-07 09:22 26.11942 91.36443 12063 ft 356 kts 282°
2026-05-07 09:22 26.12561 91.33755 13178 ft 360 kts 282°
2026-05-07 09:22 26.13181 91.31044 14278 ft 363 kts 282°
2026-05-07 09:23 26.13803 91.28303 15327 ft 367 kts 282°
2026-05-07 09:23 26.14429 91.25533 16350 ft 372 kts 281°
2026-05-07 09:23 26.15061 91.22727 17381 ft 376 kts 281°
2026-05-07 09:23 26.15700 91.19884 18354 ft 381 kts 281°
2026-05-07 09:24 26.16345 91.17010 19235 ft 385 kts 281°
2026-05-07 09:24 26.16997 91.14102 20113 ft 389 kts 281°
2026-05-07 09:24 26.17662 91.11161 21007 ft 394 kts 281°
2026-05-07 09:24 26.18337 91.08192 21890 ft 398 kts 281°
2026-05-07 09:25 26.19017 91.05188 22731 ft 402 kts 280°
2026-05-07 09:25 26.19477 91.03140 23275 ft 406 kts 280°
2026-05-07 09:25 26.20383 90.99086 24334 ft 406 kts 280°
2026-05-07 09:25 26.20841 90.97034 25003 ft 403 kts 279°
2026-05-07 09:26 26.21512 90.94020 26026 ft 399 kts 279°
2026-05-07 09:26 26.22175 90.91029 27004 ft 397 kts 279°
2026-05-07 09:26 26.22835 90.88045 27673 ft 396 kts 278°
2026-05-07 09:26 26.23492 90.85070 27836 ft 396 kts 278°
2026-05-07 09:27 26.24147 90.82094 27835 ft 396 kts 278°
2026-05-07 09:27 26.24803 90.79118 27837 ft 395 kts 278°
2026-05-07 09:27 26.26111 90.73183 27840 ft 394 kts 278°
2026-05-07 09:28 26.26764 90.70215 27837 ft 394 kts 279°
2026-05-07 09:28 26.27584 90.67285 27837 ft 398 kts 285°
2026-05-07 09:28 26.28635 90.64428 27839 ft 401 kts 289°
2026-05-07 09:28 26.29927 90.61654 27841 ft 403 kts 293°
2026-05-07 09:29 26.31302 90.58927 27841 ft 404 kts 293°
2026-05-07 09:29 26.32689 90.56207 27840 ft 404 kts 293°
2026-05-07 09:29 26.34079 90.53483 27842 ft 404 kts 293°
2026-05-07 09:29 26.35466 90.50755 27837 ft 405 kts 293°
2026-05-07 09:30 26.36851 90.48018 27846 ft 404 kts 293°
2026-05-07 09:30 26.38226 90.45292 27844 ft 404 kts 293°
2026-05-07 09:30 26.39604 90.42552 27829 ft 404 kts 293°
2026-05-07 09:30 26.40976 90.39821 27851 ft 404 kts 293°
2026-05-07 09:31 26.42344 90.37092 27833 ft 403 kts 293°
2026-05-07 09:31 26.43713 90.34361 27839 ft 403 kts 293°
2026-05-07 09:31 26.45080 90.31631 27848 ft 403 kts 293°
2026-05-07 09:31 26.46447 90.28901 27845 ft 402 kts 293°
2026-05-07 09:32 26.47811 90.26173 27846 ft 402 kts 293°
2026-05-07 09:32 26.49173 90.23448 27854 ft 402 kts 293°
2026-05-07 09:32 26.50534 90.20724 27852 ft 402 kts 293°
2026-05-07 09:32 26.51877 90.18035 27865 ft 402 kts 293°
2026-05-07 09:33 26.53254 90.15276 27858 ft 402 kts 293°
2026-05-07 09:33 26.54613 90.12551 27861 ft 401 kts 293°
2026-05-07 09:33 26.55971 90.09827 27863 ft 401 kts 293°
2026-05-07 09:33 26.57328 90.07101 27866 ft 401 kts 293°
2026-05-07 09:34 26.58683 90.04379 27870 ft 401 kts 293°
2026-05-07 09:34 26.60038 90.01655 27874 ft 401 kts 293°
2026-05-07 09:34 26.61391 89.98934 27875 ft 401 kts 293°
2026-05-07 09:34 26.62742 89.96214 27879 ft 401 kts 293°
2026-05-07 09:35 26.64096 89.93488 27883 ft 400 kts 293°